owner,sensor,date,latitude,longitude,vertical_datum,sea_water_practical_salinity,qcFlag 
DISL,ioos:station:DISL:PPTA:1,2014-03-01T00:00:00Z,30.2791,-87.5561,1.157,30.82,1111122 
DISL,ioos:station:DISL:PPTA:1,2014-03-01T00:30:00Z,30.2791,-87.5561,1.16,30.65,1111122 
DISL,ioos:station:DISL:PPTA:1,2014-03-01T01:00:00Z,30.2791,-87.5561,1.165,30.5,1111122 
DISL,ioos:station:DISL:PPTA:1,2014-03-01T01:30:00Z,30.2791,-87.5561,1.199,30.34,1111122 
DISL,ioos:station:DISL:PPTA:1,2014-03-01T02:00:00Z,30.2791,-87.5561,1.218,29.8,1111122 
DISL,ioos:station:DISL:PPTA:1,2014-03-01T02:30:00Z,30.2791,-87.5561,1.215,30.06,1111122 
DISL,ioos:station:DISL:PPTA:1,2014-03-01T03:00:00Z,30.2791,-87.5561,1.243,29.78,1111122 
DISL,ioos:station:DISL:PPTA:1,2014-03-01T03:30:00Z,30.2791,-87.5561,1.245,29.85,1111122 
DISL,ioos:station:DISL:PPTA:1,2014-03-01T04:00:00Z,30.2791,-87.5561,1.22,29.89,1111122 
DISL,ioos:station:DISL:PPTA:1,2014-03-01T04:30:00Z,30.2791,-87.5561,1.227,30.07,1111122 
DISL,ioos:station:DISL:PPTA:1,2014-03-01T05:00:00Z,30.2791,-87.5561,1.23,30.26,1111122 
DISL,ioos:station:DISL:PPTA:1,2014-03-01T05:30:00Z,30.2791,-87.5561,1.214,30.15,1111122 
DISL,ioos:station:DISL:PPTA:1,2014-03-01T06:00:00Z,30.2791,-87.5561,1.213,30.17,1111122 
DISL,ioos:station:DISL:PPTA:1,2014-03-01T06:30:00Z,30.2791,-87.5561,1.2,30.21,1111122 
DISL,ioos:station:DISL:PPTA:1,2014-03-01T07:00:00Z,30.2791,-87.5561,1.184,30.11,1111122 
DISL,ioos:station:DISL:PPTA:1,2014-03-01T07:30:00Z,30.2791,-87.5561,1.159,27.37,1111122 
DISL,ioos:station:DISL:PPTA:1,2014-03-01T08:00:00Z,30.2791,-87.5561,1.146,26.91,1111122 
DISL,ioos:station:DISL:PPTA:1,2014-03-01T08:30:00Z,30.2791,-87.5561,1.15,23.21,1111122 
DISL,ioos:station:DISL:PPTA:1,2014-03-01T09:00:00Z,30.2791,-87.5561,1.115,25.2,1111122 
DISL,ioos:station:DISL:PPTA:1,2014-03-01T09:30:00Z,30.2791,-87.5561,1.141,22.47,1111122 
DISL,ioos:station:DISL:PPTA:1,2014-03-01T10:00:00Z,30.2791,-87.5561,1.16,20.79,1111122 
DISL,ioos:station:DISL:PPTA:1,2014-03-01T10:30:00Z,30.2791,-87.5561,1.136,19.61,1111122 
DISL,ioos:station:DISL:PPTA:1,2014-03-01T11:00:00Z,30.2791,-87.5561,1.127,20.46,1111122 
DISL,ioos:station:DISL:PPTA:1,2014-03-01T11:30:00Z,30.2791,-87.5561,1.137,19.41,1111122 
DISL,ioos:station:DISL:PPTA:1,2014-03-01T12:00:00Z,30.2791,-87.5561,1.085,21.51,1111122 
DISL,ioos:station:DISL:PPTA:1,2014-03-01T12:30:00Z,30.2791,-87.5561,1.115,17.66,1111122 
DISL,ioos:station:DISL:PPTA:1,2014-03-01T13:00:00Z,30.2791,-87.5561,1.095,18.09,1111122 
DISL,ioos:station:DISL:PPTA:1,2014-03-01T13:30:00Z,30.2791,-87.5561,1.088,18.3,1111122 
DISL,ioos:station:DISL:PPTA:1,2014-03-01T14:00:00Z,30.2791,-87.5561,1.096,16.9,1111122 
DISL,ioos:station:DISL:PPTA:1,2014-03-01T14:30:00Z,30.2791,-87.5561,1.089,17.15,1111122 
DISL,ioos:station:DISL:PPTA:1,2014-03-01T15:00:00Z,30.2791,-87.5561,1.095,16.78,1111122 
DISL,ioos:station:DISL:PPTA:1,2014-03-01T15:30:00Z,30.2791,-87.5561,1.099,16.68,1111122 
DISL,ioos:station:DISL:PPTA:1,2014-03-01T16:00:00Z,30.2791,-87.5561,1.087,16.59,1111122 
DISL,ioos:station:DISL:PPTA:1,2014-03-01T16:30:00Z,30.2791,-87.5561,1.105,16.74,1111122 
DISL,ioos:station:DISL:PPTA:1,2014-03-01T17:00:00Z,30.2791,-87.5561,1.097,16.98,1111122 
DISL,ioos:station:DISL:PPTA:1,2014-03-01T17:30:00Z,30.2791,-87.5561,1.079,16.69,1111122 
DISL,ioos:station:DISL:PPTA:1,2014-03-01T18:00:00Z,30.2791,-87.5561,1.096,15.23,1111122 
DISL,ioos:station:DISL:PPTA:1,2014-03-01T18:30:00Z,30.2791,-87.5561,1.07,15.14,1111122 
DISL,ioos:station:DISL:PPTA:1,2014-03-01T19:00:00Z,30.2791,-87.5561,1.06,15.4,1111122 
DISL,ioos:station:DISL:PPTA:1,2014-03-01T19:30:00Z,30.2791,-87.5561,1.055,14.69,1111122 
DISL,ioos:station:DISL:PPTA:1,2014-03-01T20:00:00Z,30.2791,-87.5561,1.051,14.92,1111122 
DISL,ioos:station:DISL:PPTA:1,2014-03-01T20:30:00Z,30.2791,-87.5561,1.056,15.19,1111122 
DISL,ioos:station:DISL:PPTA:1,2014-03-01T21:00:00Z,30.2791,-87.5561,1.049,14.28,1111122 
DISL,ioos:station:DISL:PPTA:1,2014-03-01T21:30:00Z,30.2791,-87.5561,1.067,15.97,1111122 
DISL,ioos:station:DISL:PPTA:1,2014-03-01T22:00:00Z,30.2791,-87.5561,1.065,13.88,1111122 
DISL,ioos:station:DISL:PPTA:1,2014-03-01T22:30:00Z,30.2791,-87.5561,1.066,14.52,1111122 
DISL,ioos:station:DISL:PPTA:1,2014-03-01T23:00:00Z,30.2791,-87.5561,1.082,14.24,1111122 
DISL,ioos:station:DISL:PPTA:1,2014-03-01T23:30:00Z,30.2791,-87.5561,1.081,14.43,1111122 
DISL,ioos:station:DISL:PPTA:1,2014-03-02T00:00:00Z,30.2791,-87.5561,1.092,14.88,1111122 
DISL,ioos:station:DISL:PPTA:1,2014-03-02T00:30:00Z,30.2791,-87.5561,1.105,19.87,1111122 
DISL,ioos:station:DISL:PPTA:1,2014-03-02T01:00:00Z,30.2791,-87.5561,1.102,20.95,1111122 
DISL,ioos:station:DISL:PPTA:1,2014-03-02T01:30:00Z,30.2791,-87.5561,1.116,26.6,1111122 
DISL,ioos:station:DISL:PPTA:1,2014-03-02T02:00:00Z,30.2791,-87.5561,1.119,27.26,1111122 
DISL,ioos:station:DISL:PPTA:1,2014-03-02T02:30:00Z,30.2791,-87.5561,1.121,27.92,1111122 
DISL,ioos:station:DISL:PPTA:1,2014-03-02T03:00:00Z,30.2791,-87.5561,1.134,28.41,1111122 
DISL,ioos:station:DISL:PPTA:1,2014-03-02T03:30:00Z,30.2791,-87.5561,1.128,28.47,1111122 
DISL,ioos:station:DISL:PPTA:1,2014-03-02T04:00:00Z,30.2791,-87.5561,1.134,28.63,1111122 
DISL,ioos:station:DISL:PPTA:1,2014-03-02T04:30:00Z,30.2791,-87.5561,1.15,28.86,1111122 
DISL,ioos:station:DISL:PPTA:1,2014-03-02T05:00:00Z,30.2791,-87.5561,1.167,28.89,1111122 
DISL,ioos:station:DISL:PPTA:1,2014-03-02T05:30:00Z,30.2791,-87.5561,1.154,29.12,1111122 
DISL,ioos:station:DISL:PPTA:1,2014-03-02T06:00:00Z,30.2791,-87.5561,1.169,28.98,1111122 
DISL,ioos:station:DISL:PPTA:1,2014-03-02T06:30:00Z,30.2791,-87.5561,1.178,29.11,1111122 
DISL,ioos:station:DISL:PPTA:1,2014-03-02T07:00:00Z,30.2791,-87.5561,1.156,29.31,1111122 
DISL,ioos:station:DISL:PPTA:1,2014-03-02T07:30:00Z,30.2791,-87.5561,1.143,29.11,1111122 
DISL,ioos:station:DISL:PPTA:1,2014-03-02T08:00:00Z,30.2791,-87.5561,1.138,28.6,1111122 
DISL,ioos:station:DISL:PPTA:1,2014-03-02T08:30:00Z,30.2791,-87.5561,1.128,23.74,1111122 
DISL,ioos:station:DISL:PPTA:1,2014-03-02T09:00:00Z,30.2791,-87.5561,1.125,20.65,1111122 
DISL,ioos:station:DISL:PPTA:1,2014-03-02T09:30:00Z,30.2791,-87.5561,1.133,18.08,1111122 
DISL,ioos:station:DISL:PPTA:1,2014-03-02T10:00:00Z,30.2791,-87.5561,1.125,20.62,1111122 
DISL,ioos:station:DISL:PPTA:1,2014-03-02T10:30:00Z,30.2791,-87.5561,1.127,21.33,1111122 
DISL,ioos:station:DISL:PPTA:1,2014-03-02T11:00:00Z,30.2791,-87.5561,1.122,26.35,1111122 
DISL,ioos:station:DISL:PPTA:1,2014-03-02T11:30:00Z,30.2791,-87.5561,1.139,17.44,1111122 
DISL,ioos:station:DISL:PPTA:1,2014-03-02T12:00:00Z,30.2791,-87.5561,1.132,21.64,1111122 
DISL,ioos:station:DISL:PPTA:1,2014-03-02T12:30:00Z,30.2791,-87.5561,1.151,16.11,1111122 
DISL,ioos:station:DISL:PPTA:1,2014-03-02T13:00:00Z,30.2791,-87.5561,1.139,18.41,1111122 
DISL,ioos:station:DISL:PPTA:1,2014-03-02T13:30:00Z,30.2791,-87.5561,1.143,18.5,1111122 
DISL,ioos:station:DISL:PPTA:1,2014-03-02T14:00:00Z,30.2791,-87.5561,1.151,17.45,1111122 
DISL,ioos:station:DISL:PPTA:1,2014-03-02T14:30:00Z,30.2791,-87.5561,1.125,16.26,1111122 
DISL,ioos:station:DISL:PPTA:1,2014-03-02T15:00:00Z,30.2791,-87.5561,1.133,15.58,1111122 
DISL,ioos:station:DISL:PPTA:1,2014-03-02T15:30:00Z,30.2791,-87.5561,1.137,14.46,1111122 
DISL,ioos:station:DISL:PPTA:1,2014-03-02T16:00:00Z,30.2791,-87.5561,1.128,14.08,1111122 
DISL,ioos:station:DISL:PPTA:1,2014-03-02T16:30:00Z,30.2791,-87.5561,1.141,14.58,1111122 
DISL,ioos:station:DISL:PPTA:1,2014-03-02T17:00:00Z,30.2791,-87.5561,1.133,15.0,1111122 
DISL,ioos:station:DISL:PPTA:1,2014-03-02T17:30:00Z,30.2791,-87.5561,1.129,14.44,1111122 
DISL,ioos:station:DISL:PPTA:1,2014-03-02T18:00:00Z,30.2791,-87.5561,1.132,15.84,1111122 
DISL,ioos:station:DISL:PPTA:1,2014-03-02T18:30:00Z,30.2791,-87.5561,1.125,15.21,1111122 
DISL,ioos:station:DISL:PPTA:1,2014-03-02T19:00:00Z,30.2791,-87.5561,1.105,13.71,1111122 
DISL,ioos:station:DISL:PPTA:1,2014-03-02T19:30:00Z,30.2791,-87.5561,1.105,14.63,1111122 
DISL,ioos:station:DISL:PPTA:1,2014-03-02T20:00:00Z,30.2791,-87.5561,1.092,13.2,1111122 
DISL,ioos:station:DISL:PPTA:1,2014-03-02T20:30:00Z,30.2791,-87.5561,1.085,13.3,1111122 
DISL,ioos:station:DISL:PPTA:1,2014-03-02T21:00:00Z,30.2791,-87.5561,1.085,13.3,1111122 
DISL,ioos:station:DISL:PPTA:1,2014-03-02T21:30:00Z,30.2791,-87.5561,1.086,13.5,1111122 
DISL,ioos:station:DISL:PPTA:1,2014-03-02T22:00:00Z,30.2791,-87.5561,1.081,14.93,1111122 
DISL,ioos:station:DISL:PPTA:1,2014-03-02T22:30:00Z,30.2791,-87.5561,1.078,16.61,1111122 
DISL,ioos:station:DISL:PPTA:1,2014-03-02T23:00:00Z,30.2791,-87.5561,1.083,13.72,1111122 
DISL,ioos:station:DISL:PPTA:1,2014-03-02T23:30:00Z,30.2791,-87.5561,1.1,12.53,1111122 
DISL,ioos:station:DISL:PPTA:1,2014-03-03T00:00:00Z,30.2791,-87.5561,1.093,15.23,1111122 
DISL,ioos:station:DISL:PPTA:1,2014-03-03T00:30:00Z,30.2791,-87.5561,1.119,13.87,1111122 
DISL,ioos:station:DISL:PPTA:1,2014-03-03T01:00:00Z,30.2791,-87.5561,1.126,13.01,1111122 
DISL,ioos:station:DISL:PPTA:1,2014-03-03T01:30:00Z,30.2791,-87.5561,1.133,13.87,1111122 
DISL,ioos:station:DISL:PPTA:1,2014-03-03T02:00:00Z,30.2791,-87.5561,1.126,17.2,1111122 
DISL,ioos:station:DISL:PPTA:1,2014-03-03T02:30:00Z,30.2791,-87.5561,1.114,18.83,1111122 
DISL,ioos:station:DISL:PPTA:1,2014-03-03T03:00:00Z,30.2791,-87.5561,1.107,27.17,1111122 
DISL,ioos:station:DISL:PPTA:1,2014-03-03T03:30:00Z,30.2791,-87.5561,1.108,27.11,1111122 
DISL,ioos:station:DISL:PPTA:1,2014-03-03T04:00:00Z,30.2791,-87.5561,1.132,27.78,1111122 
DISL,ioos:station:DISL:PPTA:1,2014-03-03T04:30:00Z,30.2791,-87.5561,1.139,27.88,1111122 
DISL,ioos:station:DISL:PPTA:1,2014-03-03T05:00:00Z,30.2791,-87.5561,1.133,27.92,1111122 
DISL,ioos:station:DISL:PPTA:1,2014-03-03T05:30:00Z,30.2791,-87.5561,1.16,28.56,1111122 
DISL,ioos:station:DISL:PPTA:1,2014-03-03T06:00:00Z,30.2791,-87.5561,1.169,29.02,1111122 
DISL,ioos:station:DISL:PPTA:1,2014-03-03T06:30:00Z,30.2791,-87.5561,1.16,28.88,1111122 
DISL,ioos:station:DISL:PPTA:1,2014-03-03T07:00:00Z,30.2791,-87.5561,1.17,28.95,1111122 
DISL,ioos:station:DISL:PPTA:1,2014-03-03T07:30:00Z,30.2791,-87.5561,1.166,29.14,1111122 
DISL,ioos:station:DISL:PPTA:1,2014-03-03T08:00:00Z,30.2791,-87.5561,1.168,29.23,1111122 
DISL,ioos:station:DISL:PPTA:1,2014-03-03T08:30:00Z,30.2791,-87.5561,1.159,29.26,1111122 
DISL,ioos:station:DISL:PPTA:1,2014-03-03T09:00:00Z,30.2791,-87.5561,1.125,29.23,1111122 
DISL,ioos:station:DISL:PPTA:1,2014-03-03T09:30:00Z,30.2791,-87.5561,1.14,26.61,1111122 
DISL,ioos:station:DISL:PPTA:1,2014-03-03T10:00:00Z,30.2791,-87.5561,1.172,26.39,1111122 
DISL,ioos:station:DISL:PPTA:1,2014-03-03T10:30:00Z,30.2791,-87.5561,1.172,25.14,1111122 
DISL,ioos:station:DISL:PPTA:1,2014-03-03T11:00:00Z,30.2791,-87.5561,1.179,24.77,1111122 
DISL,ioos:station:DISL:PPTA:1,2014-03-03T11:30:00Z,30.2791,-87.5561,1.169,23.51,1111122 
DISL,ioos:station:DISL:PPTA:1,2014-03-03T12:00:00Z,30.2791,-87.5561,1.19,25.77,1111122 
DISL,ioos:station:DISL:PPTA:1,2014-03-03T12:30:00Z,30.2791,-87.5561,1.179,25.16,1111122 
DISL,ioos:station:DISL:PPTA:1,2014-03-03T13:00:00Z,30.2791,-87.5561,1.173,26.97,1111122 
DISL,ioos:station:DISL:PPTA:1,2014-03-03T13:30:00Z,30.2791,-87.5561,1.196,27.69,1111122 
DISL,ioos:station:DISL:PPTA:1,2014-03-03T14:00:00Z,30.2791,-87.5561,1.207,28.22,1111122 
DISL,ioos:station:DISL:PPTA:1,2014-03-03T14:30:00Z,30.2791,-87.5561,1.209,28.52,1111122 
DISL,ioos:station:DISL:PPTA:1,2014-03-03T15:00:00Z,30.2791,-87.5561,1.185,28.36,1111122 
DISL,ioos:station:DISL:PPTA:1,2014-03-03T15:30:00Z,30.2791,-87.5561,1.189,28.59,1111122 
DISL,ioos:station:DISL:PPTA:1,2014-03-03T16:00:00Z,30.2791,-87.5561,1.205,28.99,1111122 
DISL,ioos:station:DISL:PPTA:1,2014-03-03T16:30:00Z,30.2791,-87.5561,1.169,29.01,1111122 
DISL,ioos:station:DISL:PPTA:1,2014-03-03T17:00:00Z,30.2791,-87.5561,1.196,27.25,1111122 
DISL,ioos:station:DISL:PPTA:1,2014-03-03T17:30:00Z,30.2791,-87.5561,1.189,25.11,1111122 
DISL,ioos:station:DISL:PPTA:1,2014-03-03T18:00:00Z,30.2791,-87.5561,1.135,25.57,1111122 
DISL,ioos:station:DISL:PPTA:1,2014-03-03T18:30:00Z,30.2791,-87.5561,1.155,23.06,1111122 
DISL,ioos:station:DISL:PPTA:1,2014-03-03T19:00:00Z,30.2791,-87.5561,1.18,26.22,1111122 
DISL,ioos:station:DISL:PPTA:1,2014-03-03T19:30:00Z,30.2791,-87.5561,1.194,24.41,1111122 
DISL,ioos:station:DISL:PPTA:1,2014-03-03T20:00:00Z,30.2791,-87.5561,1.2,21.76,1111122 
DISL,ioos:station:DISL:PPTA:1,2014-03-03T20:30:00Z,30.2791,-87.5561,1.181,21.19,1111122 
DISL,ioos:station:DISL:PPTA:1,2014-03-03T21:00:00Z,30.2791,-87.5561,1.154,22.92,1111122 
DISL,ioos:station:DISL:PPTA:1,2014-03-03T21:30:00Z,30.2791,-87.5561,1.115,22.02,1111122 
DISL,ioos:station:DISL:PPTA:1,2014-03-03T22:00:00Z,30.2791,-87.5561,1.104,21.97,1111122 
DISL,ioos:station:DISL:PPTA:1,2014-03-03T22:30:00Z,30.2791,-87.5561,1.073,20.82,1111122 
DISL,ioos:station:DISL:PPTA:1,2014-03-03T23:00:00Z,30.2791,-87.5561,1.06,20.36,1111122 
DISL,ioos:station:DISL:PPTA:1,2014-03-03T23:30:00Z,30.2791,-87.5561,1.064,20.04,1111122 
DISL,ioos:station:DISL:PPTA:1,2014-03-04T00:00:00Z,30.2791,-87.5561,1.074,20.23,1111122 
DISL,ioos:station:DISL:PPTA:1,2014-03-04T00:30:00Z,30.2791,-87.5561,1.071,20.07,1111122 
DISL,ioos:station:DISL:PPTA:1,2014-03-04T01:00:00Z,30.2791,-87.5561,1.075,19.32,1111122 
DISL,ioos:station:DISL:PPTA:1,2014-03-04T01:30:00Z,30.2791,-87.5561,1.06,18.7,1111122 
DISL,ioos:station:DISL:PPTA:1,2014-03-04T02:00:00Z,30.2791,-87.5561,1.042,19.05,1111122 
DISL,ioos:station:DISL:PPTA:1,2014-03-04T02:30:00Z,30.2791,-87.5561,1.066,17.4,1111122 
DISL,ioos:station:DISL:PPTA:1,2014-03-04T03:00:00Z,30.2791,-87.5561,1.058,17.25,1111122 
DISL,ioos:station:DISL:PPTA:1,2014-03-04T03:30:00Z,30.2791,-87.5561,1.052,16.96,1111122 
DISL,ioos:station:DISL:PPTA:1,2014-03-04T04:00:00Z,30.2791,-87.5561,1.037,17.2,1111122 
DISL,ioos:station:DISL:PPTA:1,2014-03-04T04:30:00Z,30.2791,-87.5561,1.058,16.33,1111122 
DISL,ioos:station:DISL:PPTA:1,2014-03-04T05:00:00Z,30.2791,-87.5561,1.055,16.34,1111122 
DISL,ioos:station:DISL:PPTA:1,2014-03-04T05:30:00Z,30.2791,-87.5561,1.042,16.14,1111122 
DISL,ioos:station:DISL:PPTA:1,2014-03-04T06:00:00Z,30.2791,-87.5561,1.073,15.05,1111122 
DISL,ioos:station:DISL:PPTA:1,2014-03-04T06:30:00Z,30.2791,-87.5561,1.066,15.67,1111122 
DISL,ioos:station:DISL:PPTA:1,2014-03-04T07:00:00Z,30.2791,-87.5561,1.057,15.53,1111122 
DISL,ioos:station:DISL:PPTA:1,2014-03-04T07:30:00Z,30.2791,-87.5561,1.057,14.86,1111122 
DISL,ioos:station:DISL:PPTA:1,2014-03-04T08:00:00Z,30.2791,-87.5561,1.033,26.83,1111122 
DISL,ioos:station:DISL:PPTA:1,2014-03-04T08:30:00Z,30.2791,-87.5561,1.043,26.94,1111122 
DISL,ioos:station:DISL:PPTA:1,2014-03-04T09:00:00Z,30.2791,-87.5561,1.049,30.34,1111122 
DISL,ioos:station:DISL:PPTA:1,2014-03-04T09:30:00Z,30.2791,-87.5561,1.033,31.09,1111122 
DISL,ioos:station:DISL:PPTA:1,2014-03-04T10:00:00Z,30.2791,-87.5561,1.046,31.37,1111122 
DISL,ioos:station:DISL:PPTA:1,2014-03-04T10:30:00Z,30.2791,-87.5561,1.043,31.47,1111122 
DISL,ioos:station:DISL:PPTA:1,2014-03-04T11:00:00Z,30.2791,-87.5561,1.018,31.64,1111122 
DISL,ioos:station:DISL:PPTA:1,2014-03-04T11:30:00Z,30.2791,-87.5561,1.041,31.88,1111122 
DISL,ioos:station:DISL:PPTA:1,2014-03-04T12:00:00Z,30.2791,-87.5561,1.052,31.71,1111122 
DISL,ioos:station:DISL:PPTA:1,2014-03-04T12:30:00Z,30.2791,-87.5561,1.074,31.72,1111122 
DISL,ioos:station:DISL:PPTA:1,2014-03-04T13:00:00Z,30.2791,-87.5561,1.118,31.84,1111122 
DISL,ioos:station:DISL:PPTA:1,2014-03-04T13:30:00Z,30.2791,-87.5561,1.141,31.27,1111122 
DISL,ioos:station:DISL:PPTA:1,2014-03-04T14:00:00Z,30.2791,-87.5561,1.115,31.69,1111122 
DISL,ioos:station:DISL:PPTA:1,2014-03-04T14:30:00Z,30.2791,-87.5561,1.139,31.57,1111122 
DISL,ioos:station:DISL:PPTA:1,2014-03-04T15:00:00Z,30.2791,-87.5561,1.145,32.03,1111122 
DISL,ioos:station:DISL:PPTA:1,2014-03-04T15:30:00Z,30.2791,-87.5561,1.148,32.06,1111122 
DISL,ioos:station:DISL:PPTA:1,2014-03-04T16:00:00Z,30.2791,-87.5561,1.174,31.99,1111122 
DISL,ioos:station:DISL:PPTA:1,2014-03-04T16:30:00Z,30.2791,-87.5561,1.146,32.16,1111122 
DISL,ioos:station:DISL:PPTA:1,2014-03-04T17:00:00Z,30.2791,-87.5561,1.139,31.86,1111122 
DISL,ioos:station:DISL:PPTA:1,2014-03-04T17:30:00Z,30.2791,-87.5561,1.155,31.92,1111122 
DISL,ioos:station:DISL:PPTA:1,2014-03-04T18:00:00Z,30.2791,-87.5561,1.153,32.11,1111122 
DISL,ioos:station:DISL:PPTA:1,2014-03-04T18:30:00Z,30.2791,-87.5561,1.143,32.19,1111122 
DISL,ioos:station:DISL:PPTA:1,2014-03-04T19:00:00Z,30.2791,-87.5561,1.148,31.47,1111122 
DISL,ioos:station:DISL:PPTA:1,2014-03-04T19:30:00Z,30.2791,-87.5561,1.173,32.08,1111122 
DISL,ioos:station:DISL:PPTA:1,2014-03-04T20:00:00Z,30.2791,-87.5561,1.141,32.16,1111122 
DISL,ioos:station:DISL:PPTA:1,2014-03-04T20:30:00Z,30.2791,-87.5561,1.139,31.7,1111122 
DISL,ioos:station:DISL:PPTA:1,2014-03-04T21:00:00Z,30.2791,-87.5561,1.133,29.24,1111122 
DISL,ioos:station:DISL:PPTA:1,2014-03-04T21:30:00Z,30.2791,-87.5561,1.112,27.08,1111122 
DISL,ioos:station:DISL:PPTA:1,2014-03-04T22:00:00Z,30.2791,-87.5561,1.09,28.53,1111122 
DISL,ioos:station:DISL:PPTA:1,2014-03-04T22:30:00Z,30.2791,-87.5561,1.075,28.47,1111122 
DISL,ioos:station:DISL:PPTA:1,2014-03-04T23:00:00Z,30.2791,-87.5561,1.103,24.3,1111122 
DISL,ioos:station:DISL:PPTA:1,2014-03-04T23:30:00Z,30.2791,-87.5561,1.116,23.88,1111122 
DISL,ioos:station:DISL:PPTA:1,2014-03-05T00:00:00Z,30.2791,-87.5561,1.105,23.15,1111122 
DISL,ioos:station:DISL:PPTA:1,2014-03-05T00:30:00Z,30.2791,-87.5561,1.078,22.73,1111122 
DISL,ioos:station:DISL:PPTA:1,2014-03-05T01:00:00Z,30.2791,-87.5561,1.034,21.46,1111122 
DISL,ioos:station:DISL:PPTA:1,2014-03-05T01:30:00Z,30.2791,-87.5561,1.066,21.51,1111122 
DISL,ioos:station:DISL:PPTA:1,2014-03-05T02:00:00Z,30.2791,-87.5561,1.085,20.87,1111122 
DISL,ioos:station:DISL:PPTA:1,2014-03-05T02:30:00Z,30.2791,-87.5561,1.065,19.79,1111122 
DISL,ioos:station:DISL:PPTA:1,2014-03-05T03:00:00Z,30.2791,-87.5561,1.059,20.09,1111122 
DISL,ioos:station:DISL:PPTA:1,2014-03-05T03:30:00Z,30.2791,-87.5561,1.075,18.71,1111122 
DISL,ioos:station:DISL:PPTA:1,2014-03-05T04:00:00Z,30.2791,-87.5561,1.045,17.53,1111122 
DISL,ioos:station:DISL:PPTA:1,2014-03-05T04:30:00Z,30.2791,-87.5561,1.055,19.53,1111122 
DISL,ioos:station:DISL:PPTA:1,2014-03-05T05:00:00Z,30.2791,-87.5561,1.051,19.26,1111122 
DISL,ioos:station:DISL:PPTA:1,2014-03-05T05:30:00Z,30.2791,-87.5561,1.079,15.58,1111122 
DISL,ioos:station:DISL:PPTA:1,2014-03-05T06:00:00Z,30.2791,-87.5561,0.988,17.15,1111122 
DISL,ioos:station:DISL:PPTA:1,2014-03-05T06:30:00Z,30.2791,-87.5561,1.057,16.44,1111122 
DISL,ioos:station:DISL:PPTA:1,2014-03-05T07:00:00Z,30.2791,-87.5561,1.098,18.55,1111122 
DISL,ioos:station:DISL:PPTA:1,2014-03-05T07:30:00Z,30.2791,-87.5561,1.052,17.67,1111122 
DISL,ioos:station:DISL:PPTA:1,2014-03-05T08:00:00Z,30.2791,-87.5561,1.089,19.08,1111122 
DISL,ioos:station:DISL:PPTA:1,2014-03-05T08:30:00Z,30.2791,-87.5561,1.088,17.72,1111122 
DISL,ioos:station:DISL:PPTA:1,2014-03-05T09:00:00Z,30.2791,-87.5561,1.07,24.27,1111122 
DISL,ioos:station:DISL:PPTA:1,2014-03-05T09:30:00Z,30.2791,-87.5561,1.033,23.52,1111122 
DISL,ioos:station:DISL:PPTA:1,2014-03-05T10:00:00Z,30.2791,-87.5561,1.127,28.69,1111122 
DISL,ioos:station:DISL:PPTA:1,2014-03-05T10:30:00Z,30.2791,-87.5561,1.051,26.79,1111122 
DISL,ioos:station:DISL:PPTA:1,2014-03-05T11:00:00Z,30.2791,-87.5561,1.058,28.83,1111122 
DISL,ioos:station:DISL:PPTA:1,2014-03-05T11:30:00Z,30.2791,-87.5561,1.168,27.76,1111122 
DISL,ioos:station:DISL:PPTA:1,2014-03-05T12:00:00Z,30.2791,-87.5561,1.204,27.17,1111122 
DISL,ioos:station:DISL:PPTA:1,2014-03-05T12:30:00Z,30.2791,-87.5561,1.135,28.49,1111122 
DISL,ioos:station:DISL:PPTA:1,2014-03-05T13:00:00Z,30.2791,-87.5561,1.081,30.08,1111122 
DISL,ioos:station:DISL:PPTA:1,2014-03-05T13:30:00Z,30.2791,-87.5561,1.188,30.2,1111122 
DISL,ioos:station:DISL:PPTA:1,2014-03-05T14:00:00Z,30.2791,-87.5561,1.147,28.82,1111122 
DISL,ioos:station:DISL:PPTA:1,2014-03-05T14:30:00Z,30.2791,-87.5561,1.141,30.75,1111122 
DISL,ioos:station:DISL:PPTA:1,2014-03-05T15:00:00Z,30.2791,-87.5561,1.216,30.9,1111122 
DISL,ioos:station:DISL:PPTA:1,2014-03-05T15:30:00Z,30.2791,-87.5561,1.225,30.89,1111122 
DISL,ioos:station:DISL:PPTA:1,2014-03-05T16:00:00Z,30.2791,-87.5561,1.245,30.77,1111122 
DISL,ioos:station:DISL:PPTA:1,2014-03-05T16:30:00Z,30.2791,-87.5561,1.244,30.9,1111122 
DISL,ioos:station:DISL:PPTA:1,2014-03-05T17:00:00Z,30.2791,-87.5561,1.214,29.61,1111122 
DISL,ioos:station:DISL:PPTA:1,2014-03-05T17:30:00Z,30.2791,-87.5561,1.246,30.88,1111122 
DISL,ioos:station:DISL:PPTA:1,2014-03-05T18:00:00Z,30.2791,-87.5561,1.233,30.39,1111122 
DISL,ioos:station:DISL:PPTA:1,2014-03-05T18:30:00Z,30.2791,-87.5561,1.246,30.52,1111122 
DISL,ioos:station:DISL:PPTA:1,2014-03-05T19:00:00Z,30.2791,-87.5561,1.215,30.38,1111122 
DISL,ioos:station:DISL:PPTA:1,2014-03-05T19:30:00Z,30.2791,-87.5561,1.256,30.32,1111122 
DISL,ioos:station:DISL:PPTA:1,2014-03-05T20:00:00Z,30.2791,-87.5561,1.249,29.28,1111122 
DISL,ioos:station:DISL:PPTA:1,2014-03-05T20:30:00Z,30.2791,-87.5561,1.266,29.33,1111122 
DISL,ioos:station:DISL:PPTA:1,2014-03-05T21:00:00Z,30.2791,-87.5561,1.305,29.57,1111122 
DISL,ioos:station:DISL:PPTA:1,2014-03-05T21:30:00Z,30.2791,-87.5561,1.215,29.51,1111122 
DISL,ioos:station:DISL:PPTA:1,2014-03-05T22:00:00Z,30.2791,-87.5561,1.209,29.32,1111122 
DISL,ioos:station:DISL:PPTA:1,2014-03-05T22:30:00Z,30.2791,-87.5561,1.18,28.87,1111122 
DISL,ioos:station:DISL:PPTA:1,2014-03-05T23:00:00Z,30.2791,-87.5561,1.199,28.81,1111122 
DISL,ioos:station:DISL:PPTA:1,2014-03-05T23:30:00Z,30.2791,-87.5561,1.175,28.18,1111122 
DISL,ioos:station:DISL:PPTA:1,2014-03-06T00:00:00Z,30.2791,-87.5561,1.166,25.93,1111122 
DISL,ioos:station:DISL:PPTA:1,2014-03-06T00:30:00Z,30.2791,-87.5561,1.164,24.05,1111122 
DISL,ioos:station:DISL:PPTA:1,2014-03-06T01:00:00Z,30.2791,-87.5561,1.149,23.12,1111122 
DISL,ioos:station:DISL:PPTA:1,2014-03-06T01:30:00Z,30.2791,-87.5561,1.147,21.88,1111122 
DISL,ioos:station:DISL:PPTA:1,2014-03-06T02:00:00Z,30.2791,-87.5561,1.129,21.6,1111122 
DISL,ioos:station:DISL:PPTA:1,2014-03-06T02:30:00Z,30.2791,-87.5561,1.155,20.71,1111122 
DISL,ioos:station:DISL:PPTA:1,2014-03-06T03:00:00Z,30.2791,-87.5561,1.158,20.34,1111122 
DISL,ioos:station:DISL:PPTA:1,2014-03-06T03:30:00Z,30.2791,-87.5561,1.127,20.86,1111122 
DISL,ioos:station:DISL:PPTA:1,2014-03-06T04:00:00Z,30.2791,-87.5561,1.122,20.81,1111122 
DISL,ioos:station:DISL:PPTA:1,2014-03-06T04:30:00Z,30.2791,-87.5561,1.139,19.68,1111122 
DISL,ioos:station:DISL:PPTA:1,2014-03-06T05:00:00Z,30.2791,-87.5561,1.086,20.08,1111122 
DISL,ioos:station:DISL:PPTA:1,2014-03-06T05:30:00Z,30.2791,-87.5561,1.094,19.1,1111122 
DISL,ioos:station:DISL:PPTA:1,2014-03-06T06:00:00Z,30.2791,-87.5561,1.122,20.0,1111122 
DISL,ioos:station:DISL:PPTA:1,2014-03-06T06:30:00Z,30.2791,-87.5561,1.094,18.15,1111122 
DISL,ioos:station:DISL:PPTA:1,2014-03-06T07:00:00Z,30.2791,-87.5561,1.102,17.74,1111122 
DISL,ioos:station:DISL:PPTA:1,2014-03-06T07:30:00Z,30.2791,-87.5561,1.096,17.36,1111122 
DISL,ioos:station:DISL:PPTA:1,2014-03-06T08:00:00Z,30.2791,-87.5561,1.146,15.31,1111122 
DISL,ioos:station:DISL:PPTA:1,2014-03-06T08:30:00Z,30.2791,-87.5561,1.18,15.53,1111122 
DISL,ioos:station:DISL:PPTA:1,2014-03-06T09:00:00Z,30.2791,-87.5561,1.146,18.23,1111122 
DISL,ioos:station:DISL:PPTA:1,2014-03-06T09:30:00Z,30.2791,-87.5561,1.104,19.3,1111122 
DISL,ioos:station:DISL:PPTA:1,2014-03-06T10:00:00Z,30.2791,-87.5561,1.145,17.12,1111122 
DISL,ioos:station:DISL:PPTA:1,2014-03-06T10:30:00Z,30.2791,-87.5561,1.168,16.61,1111122 
DISL,ioos:station:DISL:PPTA:1,2014-03-06T11:00:00Z,30.2791,-87.5561,1.206,26.27,1111122 
DISL,ioos:station:DISL:PPTA:1,2014-03-06T11:30:00Z,30.2791,-87.5561,1.163,23.86,1111122 
DISL,ioos:station:DISL:PPTA:1,2014-03-06T12:00:00Z,30.2791,-87.5561,1.169,27.75,1111122 
DISL,ioos:station:DISL:PPTA:1,2014-03-06T12:30:00Z,30.2791,-87.5561,1.17,27.83,1111122 
DISL,ioos:station:DISL:PPTA:1,2014-03-06T13:00:00Z,30.2791,-87.5561,1.283,28.99,1111122 
DISL,ioos:station:DISL:PPTA:1,2014-03-06T13:30:00Z,30.2791,-87.5561,1.26,28.79,1111122 
DISL,ioos:station:DISL:PPTA:1,2014-03-06T14:00:00Z,30.2791,-87.5561,1.233,27.97,1111122 